[[{"header":{"parameterUnit":"m.s-1","parameterCategory":1,"la1":30.2991,"la2":30.254,"lo1":-89.0895,"lo2":-89.0444,"dy":0.0017,"dx":0.0017,"nx":28,"ny":28,"refTime":"2025-11-05T03:00:00:Z","depth":0,"parameterNumber":2,"parameterNumberName":"U-component_of_WINDS"},"data":[0,0,0,0,0,0,0,0,0,0,0,0,0,0,0,0,0,0,0,0,0,0,0,0,0,0,0,0,0,0,0,0,0,0,0,0,0,0,0,0,0,0,0,0,0,0,0,0,0,0,0,0,0,0,0,0,0,0,-3.3095,-3.3096,0,-3.3196,-3.3197,-3.3198,-3.3197,-3.3196,-3.3194,-3.3193,-3.3295,-3.3299,-3.3303,0,0,0,0,0,0,0,0,0,0,0,0,0,-3.2902,-3.2906,-3.3095,-3.3096,-3.3098,-3.3196,-3.3197,-3.3198,-3.3197,-3.3195,-3.3194,-3.3192,-3.3294,-3.3298,-3.3303,0,0,0,0,0,0,0,0,0,0,0,0,0,-3.2993,-3.2907,-3.3095,-3.3109,-3.3111,-3.3195,-3.3197,-3.3199,-3.3197,-3.3195,-3.3193,-3.3192,-3.3292,-3.3298,-3.3304,-3.3381,0,0,-3.3322,-3.3324,0,0,0,0,0,0,0,0,-3.2988,-3.3,-3.3106,-3.3108,-3.3111,-3.3182,-3.3166,-3.326,-3.3198,-3.3165,-3.3193,-3.3191,-3.3259,-3.3267,-3.3291,-3.3385,-3.339,-3.3322,-3.3326,-3.3329,-3.333,0,0,0,0,0,0,0,-3.2981,-3.2996,-3.3135,-3.3107,-3.311,-3.311,-3.3121,-3.3184,-3.3222,-3.3167,-3.3168,-3.318,-3.326,-3.3285,-3.3293,-3.3391,-3.3322,-3.3328,-3.3331,-3.3333,-3.3555,-3.3558,0,0,0,0,0,0,-3.2972,-3.299,-3.3132,-3.3138,-3.3043,-3.3115,-3.3127,-3.3161,-3.3221,-3.3228,-3.3181,-3.3179,-3.3276,-3.3286,-3.3297,-3.3391,-3.3328,-3.3334,-3.3337,-3.3553,-3.3556,-3.3558,0,0,0,0,0,0,-3.2968,-3.2985,-3.3128,-3.3064,-3.3082,-3.3121,-3.3159,-3.3164,-3.3189,-3.3231,-3.3238,-3.32,-3.3275,-3.3288,-3.336,-3.3394,-3.3337,-3.3342,-3.355,-3.3554,-3.3557,-3.3579,0,0,0,0,0,0,-3.2963,-3.2983,-3.3013,-3.3065,-3.3086,-3.3189,-3.3161,-3.3167,-3.3199,-3.3198,-3.3251,-3.3257,-3.3274,-3.3351,-3.3366,-3.3401,-3.3347,-3.3547,-3.3552,-3.3556,-3.3576,-3.3583,-3.3589,0,0,0,0,0,-3.2956,-3.3014,-3.3014,-3.3031,-3.3123,-3.3191,-3.3203,-3.3221,-3.3202,-3.3232,-3.326,-3.3256,-3.3389,-3.3359,-3.3375,-3.3413,-3.3545,-3.3551,-3.3556,-3.3572,-3.3582,-3.3589,0,0,0,0,0,0,-3.2964,-3.3021,-3.3022,-3.3099,-3.314,-3.3191,-3.3229,-3.323,-3.3277,-3.3274,-3.3294,-3.3306,-3.3378,-3.3403,-3.3368,-3.3491,-3.3465,-3.3473,-3.3472,-3.3481,-3.3487,-3.3479,-3.3352,0,0,0,0,0,-3.2975,-3.3025,-3.3073,-3.3137,-3.3158,-3.319,-3.322,-3.3231,-3.3274,-3.3291,-3.3324,-3.3366,-3.3418,-3.3451,-3.35,-3.358,-3.3592,-3.3615,-3.3621,-3.3627,-3.3634,-3.3678,-3.3689,-3.3576,-3.3576,-3.3576,0,0,-3.2998,-3.3035,-3.3066,-3.3139,-3.3172,-3.3224,-3.3204,-3.326,-3.3298,-3.33,-3.3369,-3.3395,-3.3444,-3.352,-3.3555,-3.3543,-3.3668,-3.3634,-3.3638,-3.3641,-3.3685,-3.3695,-3.3705,-3.3579,-3.3579,-3.3578,0,0,-3.3065,-3.3099,-3.3156,-3.3191,-3.3242,-3.3263,-3.3277,-3.3328,-3.3346,-3.3416,-3.3419,-3.3466,-3.3553,-3.3588,-3.3617,-3.3701,-3.37,-3.3717,-3.3752,-3.3796,-3.3805,-3.3813,-3.3842,-3.3852,-3.3724,-3.3724,-3.3724,0,-3.3087,-3.3165,-3.3185,-3.3241,-3.3274,-3.3279,-3.3337,-3.3369,-3.3434,-3.3456,-3.3442,-3.3554,-3.3587,-3.3671,-3.3692,-3.3716,-3.3732,-3.371,-3.3802,-3.381,-3.3818,-3.3846,-3.3857,-3.3726,-3.3726,-3.3726,-3.3725,0,-3.3189,-3.3244,-3.3284,-3.3346,-3.3384,-3.3441,-3.347,-3.3505,-3.3514,-3.3537,-3.3609,-3.365,-3.3708,-3.373,-3.3738,-3.3816,-3.3807,-3.3797,-3.3771,-3.383,-3.3857,-3.3868,-3.3728,-3.3728,-3.3727,-3.3727,0,0,-3.3262,-3.3337,-3.3351,-3.338,-3.3439,-3.3481,-3.3539,-3.3597,-3.3627,-3.3672,-3.3721,-3.3797,-3.3789,-3.3822,-3.3835,-3.3873,-3.3937,-3.3859,-3.386,-3.3871,-3.4025,-3.4031,-3.4043,-3.3937,-3.3939,-3.3941,-3.4021,0,-3.3335,-3.3437,-3.3458,-3.3547,-3.3597,-3.3605,-3.3655,-3.3697,-3.3721,-3.3768,-3.3794,-3.3847,-3.3833,-3.3853,-3.3892,-3.3921,-3.3968,-3.3916,-3.3982,-3.3984,-3.3968,-3.4057,-3.4063,-3.4137,-3.4032,-3.4034,-3.4035,0,-3.3433,-3.3481,-3.3575,-3.3628,-3.365,-3.3695,-3.375,-3.3795,-3.3843,-3.3858,-3.3896,-3.3905,-3.3966,-3.3939,-3.4023,-3.3987,-3.4016,-3.4035,-3.4039,-3.4044,-3.4012,-3.4064,-3.4161,-3.4171,-3.4052,-3.4051,-3.4049,0,-3.3475,-3.3564,-3.3632,-3.3657,-3.372,-3.3752,-3.378,-3.3826,-3.386,-3.3908,-3.3931,-3.3986,-3.4016,-3.4059,-3.4083,-3.4061,-3.4165,-3.414,-3.4179,-3.4179,-3.4199,-3.4197,-3.43,-3.422,-3.422,-3.422,-3.422,0,-3.3553,-3.361,-3.3652,-3.3694,-3.3758,-3.3783,-3.3846,-3.3874,-3.3915,-3.3962,-3.3973,-3.4017,-3.4047,-3.4096,-3.4116,-3.4182,-3.4196,-3.421,-3.4214,-3.4208,-3.4206,-3.4225,-3.422,-3.4223,-3.4222,-3.4222,-3.4221,0,-3.3611,-3.3641,-3.3715,-3.377,-3.3786,-3.383,-3.3877,-3.3918,-3.3944,-3.4004,-3.4019,-3.4059,-3.4117,-3.4146,-3.4219,-3.4232,-3.4307,-3.4309,-3.4291,-3.4292,-3.433,-3.4325,-3.4447,-3.4465,-3.4375,-3.4376,-3.4376,0,-3.3657,-3.3702,-3.3762,-3.3794,-3.3823,-3.3876,-3.3911,-3.3938,-3.3974,-3.4033,-3.4067,-3.4126,-3.4174,-3.4267,-3.4302,-3.4358,-3.436,-3.44,-3.4369,-3.4361,-3.436,-3.4356,-3.4361,-3.4404,-3.4405,-3.4406,-3.4406,0,-3.3737,-3.3751,-3.3801,-3.3857,-3.3899,-3.3944,-3.3989,-3.4015,-3.405,-3.409,-3.415,-3.4187,-3.4262,-3.4321,-3.4379,-3.4409,-3.4413,-3.4416,-3.4428,-3.4421,-3.4409,-3.4415,-3.4304,-3.4413,-3.4412,-3.4412,-3.4411,-3.4411,-3.379,-3.383,-3.3879,-3.3935,-3.3972,-3.4014,-3.4055,-3.4087,-3.4137,-3.42,-3.4213,-3.4277,-3.4325,-3.4405,-3.4436,-3.4487,-3.4478,-3.4495,-3.45,-3.4503,-3.4504,-3.4402,-3.4498,-3.4498,-3.4498,-3.4497,-3.4497,0,-3.387,-3.3902,-3.3954,-3.4016,-3.4061,-3.4063,-3.4113,-3.415,-3.4206,-3.4251,-3.4299,-3.4368,-3.4426,-3.4467,-3.4525,-3.4558,-3.4562,-3.4572,-3.4569,-3.4576,-3.4509,-3.4492,-3.4568,-3.4568,-3.4568,-3.4568,-3.4568,-3.4568,-3.3916,-3.3984,-3.4003,-3.409,-3.4122,-3.4184,-3.4213,-3.4252,-3.4288,-3.4366,-3.4414,-3.444,-3.4484,-3.4546,-3.4599,-3.461,-3.4631,-3.4641,-3.4652,-3.4588,-3.458,-3.4573,-3.4558,-3.4646,-3.4646,-3.4714,-3.4715,-3.4715]},{"header":{"parameterUnit":"m.s-1","parameterCategory":1,"la1":30.2991,"la2":30.254,"lo1":-89.0895,"lo2":-89.0444,"dy":0.0017,"dx":0.0017,"nx":28,"ny":28,"refTime":"2025-11-05T03:00:00:Z","depth":0,"parameterNumber":3,"parameterNumberName":"V-component_of_WINDS"},"data":[0,0,0,0,0,0,0,0,0,0,0,0,0,0,0,0,0,0,0,0,0,0,0,0,0,0,0,0,0,0,0,0,0,0,0,0,0,0,0,0,0,0,0,0,0,0,0,0,0,0,0,0,0,0,0,0,0,0,3.8648,3.8649,0,3.872,3.8721,3.8722,3.8678,3.8676,3.8674,3.8672,3.8742,3.8746,3.875,0,0,0,0,0,0,0,0,0,0,0,0,0,3.8473,3.8476,3.8648,3.8649,3.865,3.872,3.8721,3.8722,3.8678,3.8676,3.8673,3.8671,3.8741,3.8745,3.875,0,0,0,0,0,0,0,0,0,0,0,0,0,3.8547,3.8477,3.8648,3.8637,3.8636,3.872,3.8721,3.8722,3.8679,3.8676,3.8673,3.867,3.8739,3.8745,3.8751,3.8848,0,0,3.8768,3.8771,0,0,0,0,0,0,0,0,3.8543,3.8554,3.8637,3.8638,3.8637,3.8687,3.8685,3.8764,3.868,3.8663,3.8672,3.8668,3.8726,3.8733,3.8753,3.8851,3.8854,3.8769,3.8772,3.8775,3.8776,0,0,0,0,0,0,0,3.8538,3.855,3.8676,3.8639,3.8639,3.8628,3.8635,3.87,3.8711,3.8664,3.8661,3.867,3.8725,3.8748,3.8754,3.8855,3.8768,3.8774,3.8777,3.8779,3.9042,3.9045,0,0,0,0,0,0,3.8534,3.8546,3.8674,3.8679,3.8582,3.8634,3.8642,3.8674,3.871,3.8713,3.8673,3.8668,3.8739,3.8748,3.8757,3.8876,3.8774,3.878,3.8783,3.9038,3.9043,3.9047,0,0,0,0,0,0,3.853,3.8546,3.8671,3.8612,3.8627,3.864,3.8677,3.8677,3.8699,3.8717,3.8718,3.8693,3.8737,3.8749,3.8827,3.8878,3.8782,3.8788,3.9034,3.904,3.9045,3.9114,0,0,0,0,0,0,3.8525,3.8545,3.8581,3.8613,3.863,3.8741,3.868,3.8681,3.871,3.8704,3.8737,3.8739,3.8736,3.8819,3.8833,3.8884,3.8792,3.903,3.9037,3.9043,3.9108,3.9121,3.9133,0,0,0,0,0,3.8519,3.8596,3.8584,3.8599,3.8677,3.8744,3.8753,3.8749,3.8714,3.8752,3.8764,3.8738,3.887,3.8827,3.8842,3.8896,3.9027,3.9035,3.9043,3.9102,3.9119,3.9133,0,0,0,0,0,0,3.8568,3.86,3.8586,3.8676,3.8708,3.8736,3.8783,3.8766,3.8808,3.8801,3.8792,3.88,3.8883,3.8897,3.8849,3.8995,3.8943,3.8954,3.8983,3.8999,3.9011,3.9007,3.8797,0,0,0,0,0,3.859,3.8642,3.8667,3.8744,3.8761,3.877,3.8798,3.8793,3.8825,3.8837,3.8855,3.8886,3.8935,3.8967,3.9013,3.9109,3.9117,3.9154,3.9167,3.9177,3.9188,3.9244,3.9261,3.9073,3.9073,3.9073,0,0,3.8634,3.8658,3.8691,3.8754,3.8778,3.8833,3.8781,3.884,3.8881,3.8846,3.8922,3.8937,3.8971,3.906,3.91,3.9075,3.9242,3.9188,3.9196,3.9201,3.9254,3.9271,3.9287,3.9078,3.9077,3.9077,0,0,3.8744,3.8766,3.8835,3.8861,3.8899,3.8905,3.8922,3.8954,3.8963,3.904,3.9016,3.9064,3.9148,3.9175,3.92,3.9325,3.9304,3.934,3.9407,3.9461,3.9476,3.9489,3.9537,3.9554,3.935,3.935,3.935,0,3.8794,3.8876,3.8871,3.8934,3.8964,3.8938,3.9008,3.9033,3.9083,3.9105,3.9076,3.9183,3.9204,3.9301,3.9332,3.9352,3.9372,3.9336,3.9475,3.9488,3.95,3.9545,3.9563,3.9354,3.9354,3.9353,3.9353,0,3.8937,3.8995,3.9046,3.9098,3.9134,3.9199,3.9206,3.9242,3.9234,3.9244,3.9325,3.935,3.9402,3.9424,3.9416,3.9521,3.9505,3.9475,3.9423,3.9522,3.9565,3.9582,3.936,3.9359,3.9357,3.9356,0,0,3.9078,3.913,3.9149,3.9175,3.9217,3.9261,3.9327,3.938,3.9413,3.9449,3.9505,3.9579,3.9554,3.9582,3.9577,3.9624,3.9726,3.959,3.959,3.9616,3.9847,3.9871,3.9891,3.9712,3.9716,3.9718,3.9846,0,3.9192,3.9308,3.9308,3.9416,3.9471,3.9449,3.9507,3.9539,3.9551,3.9599,3.9611,3.9665,3.9626,3.9643,3.9689,3.9704,3.9773,3.9694,3.9766,3.9768,3.976,3.9912,3.9936,4.0055,3.9862,3.9864,3.9866,0,3.934,3.9385,3.9499,3.9537,3.956,3.9612,3.9663,3.9709,3.9747,3.9752,3.9786,3.9775,3.9843,3.9789,3.9885,3.9832,3.9861,3.9873,3.9878,3.9885,3.9824,3.9926,4.0093,4.0112,3.9892,3.989,3.9888,0,3.9435,3.9523,3.9604,3.9626,3.9671,3.9709,3.973,3.9764,3.9798,3.9842,3.9865,3.9916,3.9944,3.9984,3.9988,3.9947,4.0085,4.003,4.0093,4.0093,4.0123,4.0121,4.0299,4.0139,4.0139,4.0138,4.0138,0,3.9563,3.9634,3.9648,3.9698,3.9778,3.9778,3.9857,3.9874,3.9906,3.996,3.9942,3.9993,3.9994,4.0046,4.0049,4.0129,4.0141,4.0148,4.0149,4.0151,4.0151,4.0171,4.0164,4.0143,4.0142,4.0141,4.014,0,3.9682,3.9693,3.9781,3.9819,3.983,3.9888,3.992,3.9968,3.998,4.0048,4.0064,4.0081,4.0142,4.015,4.0219,4.0222,4.032,4.031,4.0308,4.0307,4.0371,4.0366,4.0569,4.0597,4.0417,4.0418,4.042,0,3.9764,3.9819,3.9864,3.99,3.9923,3.998,4.0016,4.0018,4.0056,4.0105,4.0148,4.0208,4.0256,4.0354,4.0373,4.0428,4.0421,4.0488,4.0428,4.0431,4.0425,4.0423,4.043,4.05,4.0502,4.0503,4.0505,0,3.9909,3.9913,3.9965,4.0022,4.0065,4.0108,4.0149,4.0179,4.0187,4.023,4.0294,4.0332,4.0405,4.0466,4.0521,4.0541,4.0526,4.0524,4.0542,4.0546,4.0543,4.0549,4.0342,4.0519,4.0518,4.0517,4.0516,4.0515,4.0014,4.0063,4.0104,4.0164,4.0196,4.0236,4.0285,4.0304,4.0357,4.0419,4.0417,4.0488,4.0527,4.0599,4.0625,4.0681,4.0658,4.0683,4.069,4.0697,4.0705,4.0534,4.069,4.069,4.0689,4.0689,4.0689,0,4.0161,4.0187,4.0242,4.0302,4.035,4.0332,4.0378,4.0419,4.0482,4.0521,4.057,4.0645,4.0704,4.073,4.0788,4.0828,4.0823,4.0844,4.0842,4.0848,4.072,4.07,4.0848,4.0848,4.0848,4.0848,4.0848,4.0847,4.0243,4.0327,4.0337,4.0438,4.0463,4.0534,4.0562,4.06,4.0631,4.0717,4.0767,4.0784,4.0818,4.088,4.0934,4.094,4.0964,4.0989,4.0992,4.0872,4.0856,4.0841,4.0822,4.0993,4.0994,4.1116,4.1117,4.1118]}]]